TimeEDT,TemperatureF,Dew PointF,Humidity,Sea Level PressureIn,VisibilityMPH,Wind Direction,Wind SpeedMPH,Gust SpeedMPH,PrecipitationIn,Events,Conditions,WindDirDegrees,DateUTC
12:54 AM,62.1,55.9,80,30.07,10.0,East,4.6,-,N/A,,Overcast,80,2011-10-12 04:54:00
1:54 AM,64.0,54.0,70,30.05,10.0,SE,5.8,-,N/A,,Overcast,130,2011-10-12 05:54:00
2:54 AM,63.0,54.0,72,30.05,10.0,East,4.6,-,N/A,,Overcast,100,2011-10-12 06:54:00
3:54 AM,63.0,54.0,72,30.04,10.0,South,3.5,-,N/A,,Overcast,170,2011-10-12 07:54:00
4:54 AM,62.1,54.0,75,30.04,10.0,SSE,3.5,-,N/A,,Overcast,160,2011-10-12 08:54:00
5:54 AM,62.1,54.0,75,30.04,10.0,Calm,Calm,-,N/A,,Overcast,0,2011-10-12 09:54:00
6:54 AM,62.1,54.0,75,30.04,10.0,South,3.5,-,N/A,,Overcast,190,2011-10-12 10:54:00
7:54 AM,63.0,55.0,75,30.04,10.0,Variable,5.8,-,N/A,,Overcast,0,2011-10-12 11:54:00
8:54 AM,63.0,55.0,75,30.04,10.0,ENE,5.8,-,N/A,,Overcast,60,2011-10-12 12:54:00
9:54 AM,64.0,55.0,73,30.04,10.0,Calm,Calm,-,0.00,Rain,Light Rain,0,2011-10-12 13:54:00
10:54 AM,64.9,54.0,68,30.04,10.0,South,5.8,-,0.00,,Overcast,180,2011-10-12 14:54:00
11:54 AM,64.9,55.0,70,30.02,10.0,SSE,8.1,-,0.00,Rain,Light Rain,150,2011-10-12 15:54:00
12:54 PM,66.0,55.0,68,30.01,10.0,East,4.6,-,0.00,Rain,Light Rain,90,2011-10-12 16:54:00
1:54 PM,66.0,54.0,65,29.99,10.0,SE,5.8,-,0.00,Rain,Light Rain,130,2011-10-12 17:54:00
2:28 PM,62.6,55.4,77,29.99,2.5,ESE,6.9,-,0.00,Rain,Light Rain,110,2011-10-12 18:28:00
2:41 PM,60.8,55.4,82,29.98,3.0,East,6.9,-,0.01,Rain,Light Rain,90,2011-10-12 18:41:00
2:54 PM,60.8,55.4,82,29.97,5.0,ENE,4.6,-,N/A,Rain,Light Rain,70,2011-10-12 18:54:00
3:54 PM,60.1,55.9,86,29.94,9.0,ENE,8.1,-,0.01,Rain,Light Rain,60,2011-10-12 19:54:00
4:54 PM,59.0,55.0,87,29.92,6.0,East,12.7,-,0.05,Rain,Rain,90,2011-10-12 20:54:00
5:54 PM,55.9,53.1,90,29.91,5.0,East,13.8,-,0.05,Rain,Light Rain,80,2011-10-12 21:54:00
6:31 PM,55.4,53.6,94,29.90,2.0,East,12.7,-,0.05,Rain,Rain,80,2011-10-12 22:31:00
6:49 PM,55.4,53.6,94,29.89,6.0,East,9.2,-,0.10,Rain,Light Rain,80,2011-10-12 22:49:00
6:54 PM,55.9,53.1,90,29.90,7.0,East,9.2,-,0.10,Rain,Light Rain,90,2011-10-12 22:54:00
7:05 PM,55.4,53.6,94,29.90,8.0,East,11.5,-,0.01,Rain,Light Rain,100,2011-10-12 23:05:00
7:48 PM,55.4,53.6,94,29.89,4.0,East,11.5,-,0.06,Rain,Rain,90,2011-10-12 23:48:00
7:54 PM,55.9,53.1,90,29.89,5.0,East,12.7,-,0.08,Rain,Light Rain,90,2011-10-12 23:54:00
8:54 PM,55.0,52.0,89,29.87,7.0,East,12.7,-,0.14,Rain,Light Rain,100,2011-10-13 00:54:00
9:54 PM,55.0,52.0,89,29.85,9.0,East,8.1,-,0.04,Rain,Light Rain,90,2011-10-13 01:54:00
10:54 PM,55.0,53.1,93,29.84,10.0,ENE,4.6,-,0.00,,Overcast,70,2011-10-13 02:54:00
11:54 PM,55.9,53.1,90,29.82,10.0,ENE,5.8,-,N/A,,Overcast,70,2011-10-13 03:54:00